sat.trackr.live / text

‹ back to catalog

STARLINK-36635

NORAD 67601 · 2026-018N

PAYLOAD ACTIVE UNKNOWN

§ Identity

Operator
Country
US
Launch date
2026-01-29
Launch site
AFWTR
Launch vehicle
Mass (kg)
RCS (m²)

Purposes: comms

External: N2YO · Heavens-Above · Gunter

§ Orbital elements

Epoch: 2026-05-25T03:10:49.697760Z

Period
93.91 min
Inclination
97.2839°
Eccentricity
0.0000343
Mean motion
15.33454749 rev/d
Perigee alt
465.3 km
Apogee alt
465.7 km
Semi-major
6,843.7 km
B*
4.4307e-4
RAAN
210.3276°
Arg perigee
150.3378°
Mean anomaly
209.7884°
Rev number
1,905

§ Raw data

STARLINK-366351 67601U 26018N   26145.13251965  .00014260  00000+0  44307-3 0  99902 67601  97.2839 210.3276 0000343 150.3378 209.7884 15.33454749 19056

JSON: /api/v1/satellites/67601 · /tle

For live sub-satellite position, see the globe view (requires WebGL).

§ Visibility from observer

Set your observer location to see the next 7 days of passes ≥ 10°. The values pass through the URL so the page stays shareable.

No JS? Fill the form by hand. The geolocation button needs JavaScript.